This is the latest recevied weather packets stored in our database for station/object WX7EM. If no packets are shown the sender has not sent any weather packets the latest 10 day(s).
| Time | Temp. | Humidity | Pressure | Rain* | Wind** | Luminosity | Snow |
|---|---|---|---|---|---|---|---|
| 1778199590 | 21.67° C | 47% | 1015.5 hPa | 0 mm | - | 181 W/m² | - |
| 1778199286 | 21.67° C | 49% | 1015.8 hPa | 0 mm | - | 201 W/m² | - |
| 1778198983 | 21.11° C | 49% | 1015.7 hPa | 0 mm | - | 84 W/m² | - |
| 1778198679 | 21.67° C | 50% | 1015.7 hPa | 0 mm | - | 110 W/m² | - |
| 1778198376 | 21.67° C | 47% | 1015.9 hPa | 0 mm | - | 230 W/m² | - |
| 1778198073 | 21.67° C | 47% | 1016 hPa | 0 mm | - | 56 W/m² | - |
| 1778197770 | 21.11° C | 49% | 1016.1 hPa | 0 mm | - | 55 W/m² | - |
| 1778197467 | 21.11° C | 51% | 1016 hPa | 0 mm | - | 55 W/m² | - |
| 1778197163 | 20.56° C | 52% | 1016.1 hPa | 0 mm | - | 56 W/m² | - |
| 1778196860 | 20.56° C | 56% | 1016.2 hPa | 0 mm | - | 57 W/m² | - |
| 1778196559 | 20.56° C | 59% | 1016.3 hPa | 0 mm | - | 62 W/m² | - |
| 1778196255 | 20° C | 60% | 1016.3 hPa | 0 mm | - | 98 W/m² | - |
| 1778195952 | 20° C | 61% | 1016.3 hPa | 0 mm | - | 55 W/m² | - |
| 1778195649 | 20° C | 60% | 1016.4 hPa | 0 mm | - | 98 W/m² | - |
| 1778195345 | 20° C | 61% | 1016.5 hPa | 0 mm | - | 56 W/m² | - |
| 1778195043 | 20° C | 62% | 1016.6 hPa | 0 mm | - | 58 W/m² | - |
| 1778194742 | 20° C | 62% | 1016.7 hPa | 0 mm | - | 67 W/m² | - |
| 1778194439 | 20° C | 62% | 1016.6 hPa | 0 mm | - | 58 W/m² | - |
| 1778194135 | 20° C | 65% | 1016.8 hPa | 0 mm | - | 67 W/m² | - |
| 1778193831 | 20° C | 63% | 1017 hPa | 0 mm | - | 79 W/m² | - |
| 1778193527 | 20° C | 63% | 1016.8 hPa | 0 mm | - | 104 W/m² | - |
| 1778193224 | 19.44° C | 64% | 1016.8 hPa | 0 mm | - | 231 W/m² | - |
| 1778192921 | 19.44° C | 64% | 1016.8 hPa | 0 mm | - | 78 W/m² | - |
| 1778192617 | 19.44° C | 65% | 1016.9 hPa | 0 mm | - | 100 W/m² | - |
| 1778192315 | 19.44° C | 64% | 1016.9 hPa | 0 mm | - | 63 W/m² | - |
* Rain latest hour (hover to see other rain measurements)
** Current wind speed in m/s (hover to see current wind gust speed)